TimeEDT,TemperatureF,Dew PointF,Humidity,Sea Level PressureIn,VisibilityMPH,Wind Direction,Wind SpeedMPH,Gust SpeedMPH,PrecipitationIn,Events,Conditions,WindDirDegrees,DateUTC
4:15 AM,46.4,33.8,62,29.92,12.0,NW,9.2,-,N/A,,Mostly Cloudy,310,2012-10-16 08:15:00
4:55 AM,44.6,33.8,66,29.96,12.0,NW,6.9,-,N/A,,Mostly Cloudy,320,2012-10-16 08:55:00
5:55 AM,42.8,33.8,70,29.96,12.0,West,4.6,-,N/A,,Mostly Cloudy,260,2012-10-16 09:55:00
6:55 AM,39.2,33.8,81,29.99,12.0,West,5.8,-,N/A,,Partly Cloudy,280,2012-10-16 10:55:00
7:55 AM,39.2,33.8,81,29.99,12.0,WNW,2.3,-,N/A,,Partly Cloudy,300,2012-10-16 11:55:00
8:55 AM,41.0,35.6,81,30.00,12.0,Calm,Calm,-,N/A,,Scattered Clouds,0,2012-10-16 12:55:00
9:55 AM,48.2,33.8,58,30.01,12.0,WSW,4.6,-,N/A,,Scattered Clouds,240,2012-10-16 13:55:00
10:55 AM,50.0,35.6,58,30.00,12.0,West,6.9,-,N/A,,Scattered Clouds,270,2012-10-16 14:55:00
11:55 AM,51.8,35.6,54,29.99,12.0,WSW,6.9,-,N/A,,Mostly Cloudy,250,2012-10-16 15:55:00
12:55 PM,51.8,37.4,58,29.96,12.0,SSE,11.5,-,N/A,,Mostly Cloudy,150,2012-10-16 16:55:00
1:55 PM,53.6,39.2,58,29.93,12.0,South,9.2,-,N/A,,Mostly Cloudy,170,2012-10-16 17:55:00
2:55 PM,55.4,37.4,51,29.89,12.0,SSE,10.4,-,N/A,,Mostly Cloudy,150,2012-10-16 18:55:00
3:55 PM,55.4,39.2,54,29.88,12.0,South,12.7,-,N/A,,Partly Cloudy,180,2012-10-16 19:55:00
4:55 PM,55.4,39.2,54,29.86,12.0,SSE,13.8,-,N/A,,Partly Cloudy,160,2012-10-16 20:55:00
5:56 PM,53.6,39.2,58,29.84,12.0,South,10.4,-,N/A,,Partly Cloudy,170,2012-10-16 21:56:00
6:55 PM,50.0,41.0,71,29.83,12.0,SSE,9.2,-,N/A,,Partly Cloudy,160,2012-10-16 22:55:00
7:55 PM,48.2,41.0,76,29.81,12.0,SSE,9.2,-,N/A,,Scattered Clouds,150,2012-10-16 23:55:00
8:55 PM,48.2,42.8,82,29.80,12.0,SSE,8.1,-,N/A,,Scattered Clouds,160,2012-10-17 00:55:00
9:55 PM,48.2,44.6,87,29.80,12.0,SSE,8.1,-,N/A,,Mostly Cloudy,160,2012-10-17 01:55:00
10:55 PM,51.8,46.4,82,29.83,12.0,South,4.6,-,N/A,,Mostly Cloudy,180,2012-10-17 02:55:00